TimeCDT,TemperatureF,Dew PointF,Humidity,Sea Level PressureIn,VisibilityMPH,Wind Direction,Wind SpeedMPH,Gust SpeedMPH,PrecipitationIn,Events,Conditions,WindDirDegrees,DateUTC
12:10 AM,59.0,59.0,100,30.13,10.0,ENE,8.1,-,N/A,,Clear,70,2013-08-23 05:10:00
12:30 AM,59.0,59.0,100,30.13,10.0,East,5.8,-,N/A,,Clear,90,2013-08-23 05:30:00
12:50 AM,59.0,59.0,100,30.13,10.0,East,5.8,-,N/A,,Clear,100,2013-08-23 05:50:00
1:10 AM,59.0,59.0,100,30.13,10.0,ESE,6.9,-,N/A,,Clear,110,2013-08-23 06:10:00
1:30 AM,60.8,60.8,100,30.13,10.0,East,4.6,-,N/A,,Clear,100,2013-08-23 06:30:00
1:50 AM,59.0,59.0,100,30.12,10.0,East,4.6,-,N/A,,Clear,90,2013-08-23 06:50:00
2:10 AM,59.0,59.0,100,30.12,10.0,ESE,4.6,-,N/A,,Clear,110,2013-08-23 07:10:00
2:30 AM,59.0,59.0,100,30.12,10.0,SE,5.8,-,N/A,,Clear,130,2013-08-23 07:30:00
2:50 AM,59.0,59.0,100,30.12,10.0,East,4.6,-,N/A,,Clear,100,2013-08-23 07:50:00
3:10 AM,60.8,60.8,100,30.12,10.0,ESE,4.6,-,N/A,,Clear,110,2013-08-23 08:10:00
3:30 AM,60.8,60.8,100,30.12,10.0,SE,3.5,-,N/A,,Mostly Cloudy,130,2013-08-23 08:30:00
3:50 AM,62.6,62.6,100,30.12,10.0,SE,8.1,-,N/A,,Scattered Clouds,130,2013-08-23 08:50:00
4:10 AM,62.6,62.6,100,30.12,10.0,ESE,6.9,-,N/A,,Clear,120,2013-08-23 09:10:00
4:30 AM,62.6,62.6,100,30.11,10.0,ESE,5.8,-,N/A,,Clear,120,2013-08-23 09:30:00
4:50 AM,62.6,62.6,100,30.11,10.0,SE,5.8,-,N/A,,Clear,130,2013-08-23 09:50:00
5:10 AM,62.6,62.6,100,30.11,10.0,ESE,5.8,-,N/A,,Clear,120,2013-08-23 10:10:00
5:30 AM,62.6,62.6,100,30.11,10.0,ESE,5.8,-,N/A,,Mostly Cloudy,110,2013-08-23 10:30:00
5:50 AM,60.8,60.8,100,30.10,10.0,East,4.6,-,N/A,,Scattered Clouds,90,2013-08-23 10:50:00
6:10 AM,59.0,59.0,100,30.10,10.0,ENE,4.6,-,N/A,,Clear,70,2013-08-23 11:10:00
6:30 AM,59.0,59.0,100,30.10,10.0,East,4.6,-,N/A,,Clear,90,2013-08-23 11:30:00
6:50 AM,59.0,59.0,100,30.10,10.0,East,5.8,-,N/A,,Clear,80,2013-08-23 11:50:00
7:10 AM,60.8,60.8,100,30.10,10.0,East,4.6,-,N/A,,Clear,90,2013-08-23 12:10:00
7:30 AM,62.6,62.6,100,30.10,10.0,East,4.6,-,N/A,,Clear,90,2013-08-23 12:30:00
7:50 AM,64.4,64.4,100,30.10,10.0,ESE,4.6,-,N/A,,Clear,120,2013-08-23 12:50:00
8:10 AM,68.0,68.0,100,30.09,10.0,SE,10.4,-,N/A,,Clear,140,2013-08-23 13:10:00
8:30 AM,68.0,68.0,100,30.09,10.0,SE,11.5,-,N/A,,Clear,140,2013-08-23 13:30:00
8:50 AM,71.6,71.6,100,30.09,10.0,SSE,11.5,16.1,N/A,,Clear,150,2013-08-23 13:50:00
9:10 AM,71.6,71.6,100,30.09,10.0,SSE,11.5,-,N/A,,Clear,150,2013-08-23 14:10:00
9:30 AM,73.4,73.4,100,30.09,10.0,SSE,11.5,-,N/A,,Clear,150,2013-08-23 14:30:00
9:50 AM,73.4,73.4,100,30.09,10.0,SSE,12.7,17.3,N/A,,Clear,150,2013-08-23 14:50:00
10:10 AM,75.2,73.4,94,30.08,10.0,SE,13.8,18.4,N/A,,Clear,140,2013-08-23 15:10:00
10:30 AM,75.2,71.6,89,30.07,10.0,SSE,13.8,19.6,N/A,,Clear,150,2013-08-23 15:30:00
10:50 AM,77.0,69.8,78,30.07,10.0,SSE,15.0,-,N/A,,Clear,150,2013-08-23 15:50:00
11:10 AM,77.0,69.8,78,30.06,10.0,SSE,17.3,-,N/A,,Clear,160,2013-08-23 16:10:00
11:30 AM,78.8,71.6,78,30.06,10.0,SSE,13.8,20.7,N/A,,Clear,150,2013-08-23 16:30:00
11:50 AM,80.6,71.6,74,30.05,10.0,SE,17.3,21.9,N/A,,Clear,140,2013-08-23 16:50:00
12:10 PM,80.6,73.4,79,30.05,10.0,SSE,15.0,20.7,N/A,,Clear,150,2013-08-23 17:10:00
12:30 PM,80.6,73.4,79,30.04,10.0,SE,15.0,20.7,N/A,,Partly Cloudy,140,2013-08-23 17:30:00
12:50 PM,80.6,73.4,79,30.04,10.0,SSE,12.7,20.7,N/A,,Partly Cloudy,150,2013-08-23 17:50:00
1:10 PM,82.4,73.4,74,30.03,10.0,SE,16.1,21.9,N/A,,Clear,140,2013-08-23 18:10:00
1:30 PM,82.4,75.2,79,30.02,10.0,SSE,16.1,20.7,N/A,,Clear,160,2013-08-23 18:30:00
1:50 PM,82.4,73.4,74,30.02,10.0,SSE,13.8,20.7,N/A,,Clear,150,2013-08-23 18:50:00
2:10 PM,82.4,73.4,74,30.01,10.0,SE,15.0,21.9,N/A,,Clear,140,2013-08-23 19:10:00
2:30 PM,82.4,73.4,74,30.00,10.0,SSE,15.0,20.7,N/A,,Clear,160,2013-08-23 19:30:00
2:50 PM,82.4,73.4,74,30.00,10.0,SSE,16.1,21.9,N/A,,Partly Cloudy,160,2013-08-23 19:50:00
3:10 PM,84.2,73.4,70,29.99,10.0,SSE,17.3,21.9,N/A,,Scattered Clouds,160,2013-08-23 20:10:00
3:30 PM,84.2,71.6,66,29.99,10.0,South,18.4,24.2,N/A,,Scattered Clouds,180,2013-08-23 20:30:00
3:50 PM,84.2,73.4,70,29.99,10.0,South,16.1,21.9,N/A,,Scattered Clouds,180,2013-08-23 20:50:00
4:10 PM,82.4,71.6,70,29.99,10.0,South,18.4,28.8,N/A,,Partly Cloudy,170,2013-08-23 21:10:00
4:30 PM,84.2,73.4,70,29.99,10.0,South,16.1,23.0,N/A,,Partly Cloudy,170,2013-08-23 21:30:00
4:50 PM,84.2,71.6,66,29.98,10.0,South,12.7,25.3,N/A,,Partly Cloudy,170,2013-08-23 21:50:00
5:10 PM,82.4,71.6,70,29.98,10.0,SSE,15.0,24.2,N/A,,Partly Cloudy,160,2013-08-23 22:10:00
5:30 PM,82.4,71.6,70,29.98,10.0,South,13.8,21.9,N/A,,Clear,170,2013-08-23 22:30:00
5:50 PM,82.4,69.8,66,29.98,10.0,South,17.3,27.6,N/A,,Partly Cloudy,170,2013-08-23 22:50:00
6:10 PM,80.6,71.6,74,29.98,10.0,SSE,15.0,23.0,N/A,,Partly Cloudy,160,2013-08-23 23:10:00
6:30 PM,80.6,69.8,70,29.97,10.0,SSE,16.1,23.0,N/A,,Clear,160,2013-08-23 23:30:00
6:50 PM,80.6,71.6,74,29.97,10.0,SSE,11.5,19.6,N/A,,Clear,160,2013-08-23 23:50:00
7:10 PM,78.8,69.8,74,29.97,10.0,SSE,11.5,21.9,N/A,,Clear,160,2013-08-24 00:10:00
7:30 PM,77.0,71.6,83,29.97,10.0,SSE,10.4,17.3,N/A,,Clear,160,2013-08-24 00:30:00
7:50 PM,77.0,71.6,83,29.97,10.0,SSE,13.8,18.4,N/A,,Scattered Clouds,160,2013-08-24 00:50:00
8:10 PM,77.0,71.6,83,29.96,10.0,SSE,12.7,19.6,N/A,,Partly Cloudy,150,2013-08-24 01:10:00
8:30 PM,75.2,73.4,94,29.97,10.0,SSE,9.2,-,N/A,,Clear,150,2013-08-24 01:30:00
8:50 PM,75.2,73.4,94,29.98,10.0,SSE,10.4,16.1,N/A,,Clear,150,2013-08-24 01:50:00
9:10 PM,73.4,73.4,100,29.98,10.0,SSE,10.4,-,N/A,,Clear,150,2013-08-24 02:10:00
9:30 PM,73.4,73.4,100,29.99,10.0,SSE,10.4,16.1,N/A,,Clear,150,2013-08-24 02:30:00
9:50 PM,73.4,73.4,100,29.98,10.0,SSE,10.4,-,N/A,,Clear,150,2013-08-24 02:50:00
10:10 PM,73.4,73.4,100,29.98,10.0,SSE,10.4,-,N/A,,Clear,160,2013-08-24 03:10:00
10:30 PM,73.4,73.4,100,29.98,10.0,SSE,10.4,16.1,N/A,,Clear,160,2013-08-24 03:30:00
10:50 PM,73.4,73.4,100,29.98,10.0,SSE,10.4,-,N/A,,Clear,160,2013-08-24 03:50:00
11:10 PM,73.4,73.4,100,29.98,10.0,South,10.4,16.1,N/A,,Clear,170,2013-08-24 04:10:00
11:30 PM,73.4,71.6,94,29.98,10.0,South,11.5,-,N/A,,Clear,170,2013-08-24 04:30:00
11:50 PM,71.6,71.6,100,29.98,10.0,South,12.7,-,N/A,,Clear,170,2013-08-24 04:50:00